When you browse on this site, cookies collect data to enhance your experience and personalize the content and advertising you see.
Visit our Privacy Policy to learn more. By continuing to use the site, you agree to this use of cookies and data.
EN

Hourly Weather Postolivka

Today, 23 September, Wednesday

Time Temperature Precipitation Wind Pressure Humidity
00:00 +14°C° 0 mm 4 mps 739 mmHg 38%
01:00 +13°C° 0 mm 4 mps 739 mmHg 40%
02:00 +13°C° 0 mm 4 mps 739 mmHg 43%
03:00 +12°C° 0 mm 3 mps 739 mmHg 47%
04:00 +12°C° 0 mm 3 mps 738 mmHg 52%
05:00 +11°C° 0 mm 3 mps 738 mmHg 56%
06:00 +12°C° 0 mm 4 mps 738 mmHg 59%
07:00 +13°C° 0 mm 4 mps 738 mmHg 62%
08:00 +14°C° 0 mm 5 mps 738 mmHg 64%
09:00 +16°C° 0 mm 5 mps 738 mmHg 59%
10:00 +17°C° 0 mm 5 mps 738 mmHg 55%
11:00 +20°C° 0 mm 5 mps 737 mmHg 50%
12:00 +21°C° 0 mm 5 mps 737 mmHg 48%
13:00 +23°C° 0 mm 5 mps 737 mmHg 45%
14:00 +25°C° 0 mm 5 mps 737 mmHg 44%
15:00 +23°C° 0 mm 4 mps 736 mmHg 46%
16:00 +23°C° 0 mm 4 mps 736 mmHg 47%
17:00 +22°C° 0 mm 3 mps 735 mmHg 49%
18:00 +20°C° 0 mm 3 mps 735 mmHg 50%
19:00 +19°C° 0 mm 3 mps 736 mmHg 52%
20:00 +17°C° 0 mm 3 mps 736 mmHg 53%
21:00 +17°C° 0 mm 3 mps 736 mmHg 52%
22:00 +16°C° 0 mm 3 mps 735 mmHg 50%
23:00 +16°C° 0 mm 3 mps 735 mmHg 49%

Tomorrow, 24 September, Thursday

Time Temperature Precipitation Wind Pressure Humidity
00:00 +14°C° 0 mm 3 mps 735 mmHg 50%
01:00 +14°C° 0 mm 3 mps 735 mmHg 51%
02:00 +13°C° 0 mm 3 mps 735 mmHg 53%
03:00 +13°C° 0 mm 3 mps 735 mmHg 53%
04:00 +13°C° 0 mm 3 mps 735 mmHg 53%
05:00 +12°C° 0 mm 3 mps 735 mmHg 53%
06:00 +13°C° 0 mm 3 mps 735 mmHg 54%
07:00 +14°C° 0 mm 3 mps 735 mmHg 54%
08:00 +16°C° 0 mm 3 mps 735 mmHg 55%
09:00 +17°C° 0 mm 3 mps 735 mmHg 54%
10:00 +19°C° 0 mm 3 mps 735 mmHg 53%
11:00 +21°C° 0 mm 3 mps 736 mmHg 52%
12:00 +22°C° 0 mm 3 mps 735 mmHg 49%
13:00 +25°C° 0 mm 3 mps 735 mmHg 46%
14:00 +26°C° 0 mm 2 mps 735 mmHg 43%
15:00 +25°C° 0 mm 2 mps 735 mmHg 46%
16:00 +25°C° 0 mm 2 mps 735 mmHg 49%
17:00 +24°C° 0 mm 2 mps 735 mmHg 52%
18:00 +23°C° 0 mm 1 mps 735 mmHg 56%
19:00 +21°C° 0 mm 1 mps 735 mmHg 61%
20:00 +20°C° 0 mm 1 mps 735 mmHg 65%
21:00 +19°C° 0 mm 1 mps 735 mmHg 66%
22:00 +19°C° 0 mm 1 mps 735 mmHg 67%
23:00 +18°C° 0 mm 1 mps 735 mmHg 68%

Day after tomorrow, 25 September, Friday

Time Temperature Precipitation Wind Pressure Humidity
00:00 +18°C° 0 mm 1 mps 735 mmHg 69%
01:00 +18°C° 0 mm 1 mps 735 mmHg 70%
02:00 +16°C° 0 mm 1 mps 734 mmHg 71%
03:00 +16°C° 0.1 mm 2 mps 734 mmHg 74%
04:00 +15°C° 0.1 mm 2 mps 734 mmHg 78%
05:00 +15°C° 0.1 mm 2 mps 733 mmHg 81%
06:00 +16°C° 0 mm 3 mps 733 mmHg 81%
07:00 +16°C° 0 mm 3 mps 733 mmHg 82%
08:00 +17°C° 0 mm 3 mps 733 mmHg 82%
09:00 +19°C° 0 mm 4 mps 733 mmHg 75%
10:00 +21°C° 0 mm 4 mps 733 mmHg 67%
11:00 +23°C° 0 mm 5 mps 733 mmHg 60%
12:00 +25°C° 0 mm 5 mps 732 mmHg 57%
13:00 +26°C° 0 mm 5 mps 732 mmHg 53%
14:00 +27°C° 0 mm 5 mps 731 mmHg 50%
15:00 +26°C° 0.3 mm 5 mps 731 mmHg 53%
16:00 +25°C° 0.3 mm 4 mps 730 mmHg 56%
17:00 +25°C° 0.3 mm 4 mps 730 mmHg 60%
18:00 +22°C° 0 mm 4 mps 730 mmHg 61%
19:00 +21°C° 0 mm 4 mps 730 mmHg 63%
20:00 +20°C° 0 mm 4 mps 730 mmHg 65%
21:00 +20°C° 0.3 mm 4 mps 730 mmHg 68%
22:00 +19°C° 0.3 mm 4 mps 729 mmHg 70%
23:00 +19°C° 0.3 mm 4 mps 729 mmHg 73%

26 September, Saturday

Time Temperature Precipitation Wind Pressure Humidity
00:00 +18°C° 0 mm 4 mps 729 mmHg 76%
01:00 +17°C° 0 mm 5 mps 729 mmHg 78%
02:00 +17°C° 0 mm 5 mps 728 mmHg 81%
03:00 +17°C° 0 mm 6 mps 728 mmHg 82%
04:00 +16°C° 0 mm 6 mps 728 mmHg 84%
05:00 +16°C° 0 mm 7 mps 728 mmHg 86%
06:00 +16°C° 0 mm 7 mps 727 mmHg 83%
07:00 +17°C° 0 mm 8 mps 727 mmHg 81%
08:00 +17°C° 0 mm 8 mps 727 mmHg 78%
09:00 +19°C° 0 mm 9 mps 727 mmHg 71%
10:00 +22°C° 0 mm 10 mps 727 mmHg 64%
11:00 +23°C° 0 mm 10 mps 727 mmHg 57%
12:00 +24°C° 0 mm 10 mps 727 mmHg 55%
13:00 +26°C° 0 mm 10 mps 727 mmHg 52%
14:00 +26°C° 0 mm 10 mps 727 mmHg 50%
15:00 +26°C° 0 mm 9 mps 726 mmHg 51%
16:00 +24°C° 0 mm 7 mps 726 mmHg 52%
17:00 +24°C° 0 mm 6 mps 725 mmHg 53%
18:00 +23°C° 0.2 mm 7 mps 725 mmHg 54%
19:00 +22°C° 0.2 mm 7 mps 725 mmHg 56%
20:00 +22°C° 0.2 mm 7 mps 724 mmHg 57%
21:00 +21°C° 0 mm 8 mps 724 mmHg 59%
22:00 +21°C° 0 mm 8 mps 724 mmHg 61%
23:00 +19°C° 0 mm 9 mps 724 mmHg 63%

27 September, Sunday

Time Temperature Precipitation Wind Pressure Humidity
00:00 +19°C° 0.3 mm 9 mps 723 mmHg 70%
01:00 +18°C° 0.3 mm 9 mps 723 mmHg 78%
02:00 +18°C° 0.3 mm 10 mps 723 mmHg 85%
03:00 +17°C° 0.7 mm 10 mps 723 mmHg 85%
04:00 +17°C° 0.7 mm 9 mps 722 mmHg 85%
05:00 +17°C° 0.7 mm 9 mps 722 mmHg 84%
06:00 +17°C° 2 mm 9 mps 722 mmHg 86%
07:00 +17°C° 2 mm 9 mps 722 mmHg 87%
08:00 +17°C° 2 mm 9 mps 722 mmHg 89%
09:00 +17°C° 1.9 mm 9 mps 722 mmHg 85%
10:00 +17°C° 1.9 mm 8 mps 723 mmHg 82%
11:00 +17°C° 1.9 mm 7 mps 723 mmHg 78%
12:00 +16°C° 0.6 mm 7 mps 724 mmHg 79%
13:00 +15°C° 0.6 mm 7 mps 724 mmHg 80%
14:00 +12°C° 0.6 mm 8 mps 725 mmHg 81%
15:00 +12°C° 0.3 mm 7 mps 725 mmHg 82%
16:00 +11°C° 0.3 mm 7 mps 726 mmHg 84%
17:00 +10°C° 0.3 mm 6 mps 727 mmHg 85%
18:00 +10°C° 0.1 mm 6 mps 728 mmHg 85%
19:00 +10°C° 0.1 mm 5 mps 729 mmHg 84%
20:00 +10°C° 0.1 mm 5 mps 730 mmHg 84%
21:00 +11°C° 0.1 mm 4 mps 730 mmHg 85%
22:00 +11°C° 0.1 mm 3 mps 731 mmHg 86%
23:00 +11°C° 0.1 mm 3 mps 731 mmHg 87%

28 September, Monday

Time Temperature Precipitation Wind Pressure Humidity
00:00 +10°C° 0 mm 3 mps 732 mmHg 88%
01:00 +10°C° 0 mm 2 mps 732 mmHg 90%
02:00 +9°C° 0 mm 2 mps 732 mmHg 92%
03:00 +9°C° 0 mm 2 mps 733 mmHg 91%
04:00 +9°C° 0 mm 2 mps 733 mmHg 91%
05:00 +8°C° 0 mm 2 mps 733 mmHg 91%
06:00 +9°C° 0 mm 2 mps 733 mmHg 86%
07:00 +10°C° 0 mm 2 mps 733 mmHg 81%
08:00 +10°C° 0 mm 3 mps 733 mmHg 77%
09:00 +12°C° 0 mm 3 mps 733 mmHg 71%
10:00 +13°C° 0 mm 4 mps 733 mmHg 65%
11:00 +15°C° 0 mm 4 mps 733 mmHg 60%
12:00 +15°C° 0 mm 5 mps 733 mmHg 58%
13:00 +16°C° 0 mm 5 mps 733 mmHg 57%
14:00 +16°C° 0 mm 5 mps 732 mmHg 55%
15:00 +15°C° 0.1 mm 4 mps 732 mmHg 60%
16:00 +16°C° 0.1 mm 3 mps 732 mmHg 65%
17:00 +15°C° 0.1 mm 2 mps 731 mmHg 70%
18:00 +15°C° 0.7 mm 2 mps 731 mmHg 78%
19:00 +14°C° 0.7 mm 2 mps 731 mmHg 85%
20:00 +14°C° 0.7 mm 2 mps 731 mmHg 93%
21:00 +14°C° 0.5 mm 2 mps 731 mmHg 94%
22:00 +14°C° 0.5 mm 2 mps 731 mmHg 94%
23:00 +14°C° 0.5 mm 2 mps 731 mmHg 95%
Show more